Flag for United Kingdom Weather past 2 weeks in Crawley, England, United Kingdom

Now
46 °F

Passing clouds.


Feels Like: 39 °F
Forecast: 44 / 50 °F
Wind: 17 mph from West

Location: London / Gatwick Airport

Current Time: Apr 1, 2015 at 7:11:38 PM

Latest Report: Apr 1, 2015 at 6:50 PM


Visibility: N/A

Pressure: 30.18 "Hg

Humidity: 66%

Dew point: 36 °F

Location of CrawleyLocation

Historic Weather in Crawley — Graph

°F

Crawley temperature yesterday

Maximum temperature yesterday: 55 °F (at 12:50 PM)
Minimum temperature yesterday: 43 °F (at 11:50 PM)
Average temperature yesterday: 50 °F

Past Weeks' High & Low Weather Summary

 TemperatureHumidityPressure
High55 °F (Mar 26, 1:20 PM)100% (Mar 18, 4:20 AM)30.51 "Hg (Mar 18, 4:20 AM)
Low27 °F (Mar 23, 2:20 AM)41% (Mar 31, 12:50 PM)29.42 "Hg (Mar 29, 1:20 PM)
Average45 °F77%30.03 "Hg
* Reported Mar 17 4:20 PM — Apr 1 5:50 PM, Crawley, Weather by CustomWeather, © 2015

Note: Actual official high and low records may vary slightly from our data, if they occured in-between our weather recording intervals... More about our weather records

Advertising

Crawley weather history for previous 24 hours

 ConditionsComfort  
Time TempWeatherWind HumidityBarometerVisibility
5:50 PM
Wed, Apr 1
48 °FScattered clouds.18 mph62%30.21 "HgN/A
5:20 PM48 °FScattered clouds.18 mph62%30.21 "HgN/A
4:50 PM50 °FScattered clouds.17 mph62%30.21 "HgN/A
4:20 PM48 °FPassing clouds.17 mph62%30.24 "HgN/A
3:50 PM48 °FPassing clouds.18 mph58%30.24 "HgN/A
3:20 PM50 °FPassing clouds.22 mph50%30.24 "HgN/A
2:50 PM50 °FSunny.21 mph50%30.24 "Hg10 mi
2:20 PM52 °FPassing clouds.21 mph47%30.24 "HgN/A
1:50 PM50 °FPassing clouds.18 mph50%30.27 "HgN/A
1:20 PM50 °FScattered clouds.17 mph50%30.27 "HgN/A
12:50 PM50 °FScattered clouds.20 mph54%30.27 "HgN/A
12:20 PM50 °FPartly sunny.17 mph54%30.27 "HgN/A
11:50 AM50 °FPassing clouds.17 mph50%30.27 "HgN/A
11:20 AM48 °FScattered clouds.21 mph58%30.30 "HgN/A
10:50 AM46 °FScattered clouds.17 mph57%30.27 "HgN/A
10:20 AM46 °FPassing clouds.17 mph62%30.27 "HgN/A
9:50 AM45 °FPassing clouds.15 mph66%30.27 "HgN/A
9:20 AM45 °FSunny.17 mph66%30.27 "Hg10 mi
8:50 AM43 °FSunny.18 mph71%30.27 "Hg10 mi
8:20 AM41 °FSunny.17 mph70%30.27 "Hg10 mi
7:50 AM39 °FSunny.14 mph75%30.24 "Hg10 mi
7:20 AM37 °FClear.14 mph81%30.24 "Hg10 mi
6:50 AM37 °FClear.14 mph75%30.21 "Hg10 mi
6:20 AM37 °FClear.13 mph75%30.21 "Hg10 mi
5:50 AM37 °FClear.12 mph75%30.21 "Hg10 mi
5:20 AM39 °FClear.15 mph65%30.18 "Hg10 mi
4:50 AM37 °FClear.16 mph75%30.18 "Hg10 mi
4:20 AM37 °FClear.13 mph75%30.18 "Hg10 mi
3:50 AM37 °FClear.13 mph75%30.18 "Hg10 mi
3:20 AM39 °FClear.15 mph70%30.15 "Hg10 mi
2:50 AM39 °FClear.15 mph70%30.15 "Hg10 mi
2:20 AM41 °FClear.16 mph66%30.15 "Hg10 mi
1:50 AM39 °FClear.16 mph70%30.12 "Hg10 mi
1:20 AM41 °FClear.15 mph70%30.12 "Hg10 mi
12:50 AM41 °FPassing clouds.16 mph70%30.12 "HgN/A
12:20 AM41 °FClear.14 mph70%30.09 "Hg10 mi
11:50 PM
Tue, Mar 31
43 °FPassing clouds.16 mph66%30.09 "HgN/A
11:20 PM45 °FClear.17 mph57%30.09 "Hg10 mi
10:50 PM45 °FClear.18 mph53%30.07 "Hg10 mi
10:20 PM45 °FClear.17 mph57%30.07 "Hg10 mi
9:50 PM45 °FPassing clouds.15 mph61%30.04 "HgN/A
9:20 PM46 °FPassing clouds.15 mph57%30.04 "HgN/A
8:50 PM45 °FClear.16 mph61%30.04 "Hg10 mi
8:20 PM46 °FScattered clouds.16 mph62%30.01 "HgN/A
7:50 PM46 °FPassing clouds.16 mph62%30.01 "HgN/A
7:20 PM48 °FSprinkles. Scattered clouds.17 mph58%29.98 "HgN/A
Weather by CustomWeather, © 2015

See weather overviewHow to use our weather pages